| time (UTC) | temp F | wind direction | speed MPH | gust MPH | rain 1hr in | rain 24hr in | rain mn in | humidity % | barometer mb |
| 20260505094027 | 53 | 194 | 6.0 | 9.0 | 0.00 | 0.00 | 0.00 | 94 | 1012.9 |
| 20260505093523 | 53 | 194 | 5.0 | 9.0 | 0.00 | 0.00 | 0.00 | 94 | 1012.7 |
| 20260505093027 | 53 | 207 | 6.0 | 9.0 | 0.00 | 0.00 | 0.00 | 94 | 1012.6 |
| 20260505092521 | 53 | 190 | 6.0 | 10.0 | 0.00 | 0.00 | 0.00 | 94 | 1012.5 |
| 20260505092021 | 53 | 205 | 6.0 | 9.0 | 0.00 | 0.00 | 0.00 | 94 | 1012.5 |
| 20260505091520 | 53 | 207 | 6.0 | 9.0 | 0.00 | 0.00 | 0.00 | 93 | 1012.4 |
| 20260505091018 | 53 | 194 | 6.0 | 10.0 | 0.00 | 0.00 | 0.00 | 93 | 1012.5 |
| 20260505090518 | 53 | 203 | 6.0 | 10.0 | 0.00 | 0.00 | 0.00 | 93 | 1012.4 |
| 20260505090017 | 53 | 195 | 6.0 | 10.0 | 0.00 | 0.00 | 0.00 | 93 | 1012.5 |
| 20260505085517 | 53 | 192 | 6.0 | 9.0 | 0.00 | 0.00 | 0.00 | 93 | 1012.5 |
| 20260505085017 | 53 | 185 | 6.0 | 10.0 | 0.00 | 0.00 | 0.00 | 93 | 1012.5 |
| 20260505084518 | 53 | 214 | 7.0 | 10.0 | 0.00 | 0.00 | 0.00 | 93 | 1012.6 |
| 20260505084013 | 53 | 211 | 5.0 | 10.0 | 0.00 | 0.00 | 0.00 | 93 | 1012.5 |
| 20260505083514 | 53 | 208 | 6.0 | 10.0 | 0.00 | 0.00 | 0.00 | 93 | 1012.5 |
| 20260505083015 | 53 | 194 | 5.0 | 10.0 | 0.00 | 0.00 | 0.00 | 93 | 1012.3 |
| 20260505082514 | 53 | 199 | 6.0 | 10.0 | 0.00 | 0.00 | 0.00 | 93 | 1012.2 |
| 20260505082012 | 53 | 186 | 5.0 | 10.0 | 0.00 | 0.00 | 0.00 | 93 | 1012.2 |
| 20260505081516 | 53 | 194 | 6.0 | 10.0 | 0.00 | 0.00 | 0.00 | 93 | 1012.1 |
| 20260505081018 | 53 | 205 | 7.0 | 10.0 | 0.00 | 0.00 | 0.00 | 93 | 1012.1 |
| 20260505080513 | 54 | 176 | 7.0 | 10.0 | 0.00 | 0.00 | 0.00 | 93 | 1012.1 |
| 20260505080026 | 54 | 230 | 5.0 | 10.0 | 0.00 | 0.00 | 0.00 | 93 | 1012.1 |
| 20260505075508 | 54 | 223 | 6.0 | 10.0 | 0.00 | 0.00 | 0.00 | 93 | 1012.1 |
| 20260505075012 | 54 | 205 | 7.0 | 10.0 | 0.00 | 0.00 | 0.00 | 93 | 1012.1 |
| 20260505074506 | 53 | 192 | 6.0 | 10.0 | 0.00 | 0.00 | 0.00 | 93 | 1012.0 |
| 20260505074005 | 53 | 215 | 6.0 | 10.0 | 0.00 | 0.00 | 0.00 | 92 | 1011.9 |
| 20260505073504 | 53 | 201 | 5.0 | 10.0 | 0.00 | 0.00 | 0.00 | 92 | 1011.8 |
| 20260505073003 | 54 | 196 | 6.0 | 10.0 | 0.00 | 0.00 | 0.00 | 92 | 1011.8 |
| 20260505072501 | 54 | 193 | 7.0 | 10.0 | 0.00 | 0.00 | 0.00 | 92 | 1011.8 |
| 20260505072001 | 54 | 188 | 6.0 | 9.0 | 0.00 | 0.00 | 0.00 | 92 | 1011.8 |
| 20260505071604 | 54 | 193 | 5.0 | 8.0 | 0.00 | 0.00 | 0.00 | 91 | 1011.7 |
| 20260505071059 | 54 | 200 | 5.0 | 8.0 | 0.00 | 0.00 | 0.00 | 91 | 1011.6 |
| 20260505070558 | 54 | 211 | 5.0 | 7.0 | 0.00 | 0.00 | 0.00 | 91 | 1011.6 |
| 20260505070057 | 54 | 199 | 5.0 | 7.0 | 0.00 | 0.00 | 0.00 | 91 | 1011.5 |
| 20260505065555 | 54 | 199 | 4.0 | 6.0 | 0.00 | 0.00 | 0.00 | 90 | 1011.5 |
| 20260505065059 | 55 | 202 | 4.0 | 6.0 | 0.00 | 0.00 | 0.00 | 90 | 1011.5 |
| 20260505064602 | 55 | 205 | 3.0 | 6.0 | 0.00 | 0.00 | 0.00 | 89 | 1011.4 |
| 20260505064055 | 55 | 190 | 3.0 | 6.0 | 0.00 | 0.00 | 0.00 | 89 | 1011.4 |
| 20260505063557 | 56 | 188 | 3.0 | 6.0 | 0.00 | 0.00 | 0.00 | 88 | 1011.5 |
| 20260505063056 | 56 | 197 | 0.0 | 3.0 | 0.00 | 0.00 | 0.00 | 87 | 1011.5 |
| 20260505062553 | 56 | 204 | 1.0 | 5.0 | 0.00 | 0.00 | 0.00 | 87 | 1011.4 |
| 20260505062052 | 57 | 84 | 2.0 | 7.0 | 0.00 | 0.00 | 0.00 | 86 | 1011.4 |
| 20260505061555 | 57 | 202 | 5.0 | 7.0 | 0.00 | 0.00 | 0.00 | 86 | 1011.3 |
| 20260505061051 | 57 | 186 | 2.0 | 6.0 | 0.00 | 0.00 | 0.00 | 86 | 1011.3 |
| 20260505060551 | 57 | 198 | 2.0 | 6.0 | 0.00 | 0.00 | 0.00 | 85 | 1011.2 |
| 20260505060050 | 57 | 162 | 2.0 | 6.0 | 0.00 | 0.00 | 0.00 | 85 | 1011.2 |
| 20260505055550 | 57 | 202 | 3.0 | 6.0 | 0.00 | 0.00 | 0.00 | 84 | 1011.1 |
| 20260505055053 | 57 | 192 | 0.0 | 3.0 | 0.00 | 0.00 | 0.00 | 85 | 1010.9 |
| 20260505054558 | 57 | 187 | 0.0 | 2.0 | 0.00 | 0.00 | 0.00 | 84 | 1010.9 |
| 20260505054047 | 58 | 185 | 0.0 | 5.0 | 0.00 | 0.00 | 0.00 | 83 | 1010.9 |
| 20260505053547 | 58 | 61 | 0.0 | 5.0 | 0.00 | 0.00 | 0.00 | 82 | 1010.9 |
| 20260505053058 | 59 | 35 | 0.0 | 3.0 | 0.00 | 0.00 | 0.00 | 81 | 1010.7 |
| 20260505052546 | 59 | 34 | 2.0 | 3.0 | 0.00 | 0.00 | 0.00 | 81 | 1010.7 |
| 20260505052048 | 59 | 34 | 1.0 | 2.0 | 0.00 | 0.00 | 0.00 | 81 | 1010.7 |
| 20260505051546 | 59 | 34 | 0.0 | 2.0 | 0.00 | 0.00 | 0.00 | 80 | 1010.7 |
| 20260505051045 | 59 | 34 | 0.0 | 0.0 | 0.00 | 0.00 | 0.00 | 81 | 1010.6 |
| 20260505050544 | 59 | 34 | 0.0 | 0.0 | 0.00 | 0.00 | 0.00 | 81 | 1010.5 |
| 20260505041607 | 61 | 34 | 1.0 | 4.0 | 0.00 | 0.00 | 0.00 | 77 | 1009.9 |
| 20260505041043 | 62 | 38 | 2.0 | 3.0 | 0.00 | 0.00 | 0.00 | 77 | 1009.8 |
| 20260505040543 | 62 | 360 | 1.0 | 2.0 | 0.00 | 0.00 | 0.00 | 75 | 1009.8 |
| 20260505040044 | 63 | 5 | 1.0 | 2.0 | 0.00 | 0.00 | 0.00 | 73 | 1009.6 |
| 20260505035543 | 63 | 9 | 1.0 | 3.0 | 0.00 | 0.00 | 0.00 | 71 | 1009.5 |
| 20260505035045 | 63 | 9 | 2.0 | 3.0 | 0.00 | 0.00 | 0.00 | 71 | 1009.5 |
| 20260505034545 | 63 | 9 | 2.0 | 3.0 | 0.00 | 0.00 | 0.00 | 71 | 1009.4 |
| 20260505034043 | 63 | 5 | 1.0 | 2.0 | 0.00 | 0.00 | 0.00 | 70 | 1009.4 |
| 20260505033542 | 64 | 5 | 1.0 | 2.0 | 0.00 | 0.00 | 0.00 | 70 | 1009.5 |
| 20260505033042 | 64 | 5 | 1.0 | 3.0 | 0.00 | 0.00 | 0.00 | 71 | 1009.4 |
| 20260505032545 | 64 | 5 | 1.0 | 3.0 | 0.00 | 0.00 | 0.00 | 70 | 1009.3 |
| 20260505032041 | 64 | 5 | 1.0 | 3.0 | 0.00 | 0.00 | 0.00 | 69 | 1009.5 |
| 20260505031540 | 64 | 5 | 1.0 | 2.0 | 0.00 | 0.00 | 0.00 | 70 | 1009.3 |
| 20260505031044 | 64 | 5 | 0.0 | 1.0 | 0.00 | 0.00 | 0.00 | 72 | 1009.3 |
| 20260505030543 | 64 | 5 | 0.0 | 1.0 | 0.00 | 0.00 | 0.00 | 69 | 1009.3 |
| 20260505030041 | 64 | 5 | 0.0 | 1.0 | 0.00 | 0.00 | 0.00 | 70 | 1009.3 |
| 20260505025541 | 65 | 5 | 0.0 | 1.0 | 0.00 | 0.00 | 0.00 | 70 | 1009.3 |
| 20260505025041 | 65 | 5 | 0.0 | 2.0 | 0.00 | 0.00 | 0.00 | 69 | 1009.2 |
| 20260505024545 | 65 | 5 | 0.0 | 2.0 | 0.00 | 0.00 | 0.00 | 67 | 1009.2 |
| 20260505024039 | 65 | 5 | 0.0 | 2.0 | 0.00 | 0.00 | 0.00 | 69 | 1009.2 |
| 20260505023539 | 66 | 5 | 0.0 | 2.0 | 0.00 | 0.00 | 0.00 | 70 | 1009.1 |
| 20260505023045 | 66 | 5 | 1.0 | 2.0 | 0.00 | 0.00 | 0.00 | 68 | 1009.1 |
| 20260505022539 | 66 | 5 | 1.0 | 2.0 | 0.00 | 0.00 | 0.00 | 65 | 1009.1 |
| 20260505022039 | 66 | 5 | 0.0 | 2.0 | 0.00 | 0.00 | 0.00 | 67 | 1009.2 |
| 20260505021544 | 66 | 5 | 0.0 | 2.0 | 0.00 | 0.00 | 0.00 | 68 | 1009.1 |
| 20260505021039 | 67 | 5 | 0.0 | 2.0 | 0.00 | 0.00 | 0.00 | 66 | 1009.2 |
| 20260505020539 | 67 | 5 | 0.0 | 2.0 | 0.00 | 0.00 | 0.00 | 63 | 1009.2 |
| 20260505020039 | 67 | 53 | 0.0 | 3.0 | 0.00 | 0.00 | 0.00 | 65 | 1009.2 |
| 20260505015542 | 68 | 317 | 0.0 | 3.0 | 0.00 | 0.00 | 0.00 | 61 | 1009.2 |
| 20260505015039 | 68 | 128 | 0.0 | 3.0 | 0.00 | 0.00 | 0.00 | 68 | 1009.3 |
| 20260505014542 | 68 | 333 | 0.0 | 3.0 | 0.00 | 0.00 | 0.00 | 68 | 1009.2 |
| 20260505014038 | 68 | 342 | 0.0 | 2.0 | 0.00 | 0.00 | 0.00 | 67 | 1009.3 |
| 20260505013537 | 69 | 342 | 0.0 | 3.0 | 0.00 | 0.00 | 0.00 | 64 | 1009.3 |
| 20260505013038 | 69 | 340 | 1.0 | 3.0 | 0.00 | 0.00 | 0.00 | 62 | 1009.3 |
| 20260505012538 | 69 | 291 | 0.0 | 3.0 | 0.00 | 0.00 | 0.00 | 62 | 1009.4 |
| 20260505012037 | 69 | 296 | 0.0 | 2.0 | 0.00 | 0.00 | 0.00 | 62 | 1009.3 |
| 20260505011538 | 69 | 295 | 0.0 | 3.0 | 0.00 | 0.00 | 0.00 | 66 | 1009.4 |
| 20260505011037 | 69 | 294 | 0.0 | 3.0 | 0.00 | 0.00 | 0.00 | 68 | 1009.4 |
| 20260505010537 | 69 | 313 | 1.0 | 3.0 | 0.00 | 0.00 | 0.00 | 68 | 1009.4 |
| 20260505010042 | 69 | 13 | 1.0 | 3.0 | 0.00 | 0.00 | 0.00 | 67 | 1009.4 |
| 20260505005537 | 69 | 267 | 0.0 | 4.0 | 0.00 | 0.00 | 0.00 | 65 | 1009.5 |
| 20260505005037 | 69 | 333 | 1.0 | 4.0 | 0.00 | 0.00 | 0.00 | 65 | 1009.4 |
| 20260505004536 | 69 | 344 | 1.0 | 4.0 | 0.00 | 0.00 | 0.00 | 68 | 1009.3 |
| 20260505004035 | 70 | 310 | 0.0 | 2.0 | 0.00 | 0.00 | 0.00 | 69 | 1009.4 |
| 20260505003535 | 70 | 309 | 0.0 | 2.0 | 0.00 | 0.00 | 0.00 | 68 | 1009.4 |
| 20260505003036 | 71 | 309 | 0.0 | 2.0 | 0.00 | 0.00 | 0.00 | 67 | 1009.3 |
| 20260505002536 | 71 | 338 | 0.0 | 2.0 | 0.00 | 0.00 | 0.00 | 65 | 1009.4 |
| 20260505002036 | 72 | 338 | 0.0 | 3.0 | 0.00 | 0.00 | 0.00 | 63 | 1009.4 |
| 20260505001547 | 71 | 209 | 1.0 | 3.0 | 0.00 | 0.00 | 0.00 | 62 | 1009.4 |
| 20260505001035 | 72 | 209 | 1.0 | 3.0 | 0.00 | 0.00 | 0.00 | 60 | 1009.4 |
| 20260505000535 | 72 | 209 | 2.0 | 3.0 | 0.00 | 0.00 | 0.00 | 58 | 1009.4 |
| 20260505000041 | 73 | 210 | 0.0 | 2.0 | 0.00 | 0.00 | 0.00 | 57 | 1009.4 |
| 20260504235535 | 72 | 210 | 1.0 | 3.0 | 0.00 | 0.00 | 0.00 | 59 | 1009.4 |
| 20260504235035 | 72 | 205 | 1.0 | 5.0 | 0.00 | 0.00 | 0.00 | 64 | 1009.5 |
| 20260504234534 | 72 | 209 | 2.0 | 5.0 | 0.00 | 0.00 | 0.00 | 61 | 1009.5 |
| 20260504234034 | 72 | 202 | 1.0 | 4.0 | 0.00 | 0.00 | 0.00 | 59 | 1009.5 |
| 20260504233536 | 72 | 208 | 1.0 | 4.0 | 0.00 | 0.00 | 0.00 | 66 | 1009.4 |
| 20260504233036 | 72 | 224 | 2.0 | 4.0 | 0.00 | 0.00 | 0.00 | 62 | 1009.5 |
| 20260504232533 | 72 | 195 | 1.0 | 3.0 | 0.00 | 0.00 | 0.00 | 64 | 1009.7 |
| 20260504232033 | 72 | 194 | 1.0 | 5.0 | 0.00 | 0.00 | 0.00 | 64 | 1009.6 |
| 20260504231548 | 72 | 195 | 2.0 | 5.0 | 0.00 | 0.00 | 0.00 | 59 | 1009.5 |
| 20260504231034 | 72 | 207 | 2.0 | 6.0 | 0.00 | 0.00 | 0.00 | 65 | 1009.5 |
| 20260504230534 | 72 | 198 | 3.0 | 6.0 | 0.00 | 0.00 | 0.00 | 62 | 1009.5 |
| 20260504230034 | 73 | 195 | 2.0 | 5.0 | 0.00 | 0.00 | 0.00 | 61 | 1009.6 |
| 20260504225532 | 72 | 103 | 1.0 | 5.0 | 0.00 | 0.00 | 0.00 | 62 | 1009.6 |
| 20260504225032 | 72 | 196 | 2.0 | 4.0 | 0.00 | 0.00 | 0.00 | 66 | 1009.6 |
| 20260504224537 | 72 | 203 | 1.0 | 4.0 | 0.00 | 0.00 | 0.00 | 62 | 1009.6 |
| 20260504224032 | 72 | 205 | 1.0 | 5.0 | 0.00 | 0.00 | 0.00 | 64 | 1009.7 |
| 20260504223536 | 72 | 198 | 2.0 | 5.0 | 0.00 | 0.00 | 0.00 | 62 | 1009.7 |
| 20260504223031 | 72 | 197 | 2.0 | 4.0 | 0.00 | 0.00 | 0.00 | 64 | 1009.8 |
| 20260504222531 | 72 | 206 | 2.0 | 4.0 | 0.00 | 0.00 | 0.00 | 64 | 1009.8 |
| 20260504222030 | 72 | 203 | 2.0 | 5.0 | 0.00 | 0.00 | 0.00 | 64 | 1009.8 |
| 20260504221531 | 72 | 207 | 2.0 | 5.0 | 0.00 | 0.00 | 0.00 | 64 | 1009.9 |
| 20260504221030 | 72 | 117 | 1.0 | 4.0 | 0.00 | 0.00 | 0.00 | 63 | 1010.0 |
| 20260504220529 | 71 | 119 | 1.0 | 6.0 | 0.00 | 0.00 | 0.00 | 64 | 1010.1 |
| 20260504220033 | 71 | 199 | 3.0 | 6.0 | 0.00 | 0.00 | 0.00 | 66 | 1010.2 |
| 20260504215529 | 71 | 120 | 2.0 | 5.0 | 0.00 | 0.00 | 0.00 | 65 | 1010.1 |
| 20260504215030 | 70 | 138 | 2.0 | 5.0 | 0.00 | 0.00 | 0.00 | 66 | 1010.3 |
| 20260504214527 | 69 | 198 | 3.0 | 5.0 | 0.00 | 0.00 | 0.00 | 66 | 1010.2 |
| 20260504214030 | 70 | 194 | 2.0 | 4.0 | 0.00 | 0.00 | 0.00 | 65 | 1010.2 |
| 20260504213525 | 71 | 100 | 1.0 | 4.0 | 0.00 | 0.00 | 0.00 | 66 | 1010.3 |
| 20260504213026 | 70 | 198 | 1.0 | 5.0 | 0.00 | 0.00 | 0.00 | 65 | 1010.3 |
| 20260504212527 | 70 | 200 | 1.0 | 4.0 | 0.00 | 0.00 | 0.00 | 67 | 1010.3 |
| 20260504212024 | 70 | 192 | 2.0 | 3.0 | 0.00 | 0.00 | 0.00 | 62 | 1010.3 |
| 20260504211528 | 69 | 193 | 1.0 | 3.0 | 0.00 | 0.00 | 0.00 | 61 | 1010.4 |
| 20260504211024 | 70 | 207 | 0.0 | 3.0 | 0.00 | 0.00 | 0.00 | 68 | 1010.5 |
| 20260504210527 | 69 | 134 | 0.0 | 3.0 | 0.00 | 0.00 | 0.00 | 66 | 1010.4 |
| 20260504210027 | 69 | 111 | 1.0 | 3.0 | 0.00 | 0.00 | 0.00 | 69 | 1010.5 |
| 20260504205525 | 68 | 137 | 0.0 | 2.0 | 0.00 | 0.00 | 0.00 | 68 | 1010.6 |
| 20260504205024 | 69 | 165 | 1.0 | 4.0 | 0.00 | 0.00 | 0.00 | 69 | 1010.4 |
| 20260504204524 | 69 | 177 | 2.0 | 4.0 | 0.00 | 0.00 | 0.00 | 65 | 1010.5 |
| 20260504204023 | 69 | 178 | 0.0 | 3.0 | 0.00 | 0.00 | 0.00 | 63 | 1010.5 |
| 20260504203523 | 70 | 180 | 1.0 | 3.0 | 0.00 | 0.00 | 0.00 | 63 | 1010.5 |
| 20260504203030 | 71 | 171 | 1.0 | 3.0 | 0.00 | 0.00 | 0.00 | 54 | 1010.5 |
| 20260504202522 | 70 | 126 | 1.0 | 3.0 | 0.00 | 0.00 | 0.00 | 64 | 1010.5 |
| 20260504202021 | 70 | 187 | 1.0 | 3.0 | 0.00 | 0.00 | 0.00 | 61 | 1010.6 |
| 20260504201521 | 69 | 134 | 1.0 | 3.0 | 0.00 | 0.00 | 0.00 | 65 | 1010.6 |
| 20260504201021 | 70 | 183 | 1.0 | 3.0 | 0.00 | 0.00 | 0.00 | 59 | 1010.6 |
| 20260504200521 | 70 | 161 | 0.0 | 3.0 | 0.00 | 0.00 | 0.00 | 61 | 1010.7 |
| 20260504200021 | 69 | 178 | 1.0 | 4.0 | 0.00 | 0.00 | 0.00 | 65 | 1010.7 |
| 20260504195520 | 69 | 198 | 1.0 | 4.0 | 0.00 | 0.00 | 0.00 | 61 | 1010.8 |
| 20260504195021 | 70 | 187 | 1.0 | 3.0 | 0.00 | 0.00 | 0.00 | 65 | 1010.7 |
| 20260504194531 | 70 | 194 | 1.0 | 3.0 | 0.00 | 0.00 | 0.00 | 63 | 1010.6 |
| 20260504194019 | 68 | 165 | 1.0 | 2.0 | 0.00 | 0.00 | 0.00 | 64 | 1010.6 |
| 20260504193517 | 68 | 165 | 1.0 | 2.0 | 0.00 | 0.00 | 0.00 | 64 | 1010.7 |
| 20260504193019 | 68 | 172 | 0.0 | 3.0 | 0.00 | 0.00 | 0.00 | 67 | 1010.7 |
| 20260504192515 | 68 | 174 | 1.0 | 3.0 | 0.00 | 0.00 | 0.00 | 63 | 1010.6 |
| 20260504192016 | 67 | 152 | 0.0 | 3.0 | 0.00 | 0.00 | 0.00 | 67 | 1010.7 |
| 20260504191514 | 67 | 165 | 1.0 | 3.0 | 0.00 | 0.00 | 0.00 | 68 | 1010.7 |
| 20260504191013 | 67 | 139 | 0.0 | 3.0 | 0.00 | 0.00 | 0.00 | 69 | 1010.7 |
| 20260504190513 | 67 | 132 | 1.0 | 3.0 | 0.00 | 0.00 | 0.00 | 65 | 1010.7 |
| 20260504190012 | 67 | 203 | 2.0 | 3.0 | 0.00 | 0.00 | 0.00 | 68 | 1010.7 |
| 20260504185513 | 66 | 173 | 1.0 | 3.0 | 0.00 | 0.00 | 0.00 | 71 | 1010.8 |
| 20260504185010 | 65 | 191 | 1.0 | 3.0 | 0.00 | 0.00 | 0.00 | 73 | 1010.8 |
| 20260504184512 | 65 | 190 | 1.0 | 3.0 | 0.00 | 0.00 | 0.00 | 70 | 1010.8 |
| 20260504184011 | 65 | 203 | 1.0 | 3.0 | 0.00 | 0.00 | 0.00 | 68 | 1011.0 |
| 20260504183509 | 66 | 174 | 0.0 | 3.0 | 0.00 | 0.00 | 0.00 | 70 | 1011.1 |
| 20260504183008 | 65 | 144 | 1.0 | 3.0 | 0.00 | 0.00 | 0.00 | 67 | 1011.0 |
| 20260504182509 | 65 | 163 | 1.0 | 3.0 | 0.00 | 0.00 | 0.00 | 68 | 1011.1 |
| 20260504182007 | 65 | 209 | 1.0 | 3.0 | 0.00 | 0.00 | 0.00 | 69 | 1011.0 |
| 20260504181508 | 65 | 113 | 1.0 | 3.0 | 0.00 | 0.00 | 0.00 | 72 | 1011.0 |
| 20260504181010 | 64 | 144 | 1.0 | 4.0 | 0.00 | 0.00 | 0.00 | 73 | 1011.1 |
| 20260504180506 | 64 | 205 | 2.0 | 4.0 | 0.00 | 0.00 | 0.00 | 71 | 1011.0 |
| 20260504180012 | 64 | 213 | 2.0 | 4.0 | 0.00 | 0.00 | 0.00 | 69 | 1010.9 |
| 20260504175505 | 64 | 184 | 2.0 | 4.0 | 0.00 | 0.00 | 0.00 | 70 | 1010.8 |
| 20260504175005 | 64 | 178 | 0.0 | 4.0 | 0.00 | 0.00 | 0.00 | 71 | 1010.7 |
| 20260504174503 | 64 | 201 | 1.0 | 4.0 | 0.00 | 0.00 | 0.00 | 69 | 1010.8 |
| 20260504174002 | 63 | 175 | 0.0 | 2.0 | 0.00 | 0.00 | 0.00 | 69 | 1010.8 |
| 20260504173502 | 62 | 196 | 0.0 | 2.0 | 0.00 | 0.00 | 0.00 | 70 | 1010.8 |
| 20260504173123 | 62 | 196 | 1.0 | 3.0 | 0.00 | 0.00 | 0.00 | 71 | 1010.8 |
| 20260504172558 | 61 | 196 | 1.0 | 3.0 | 0.00 | 0.00 | 0.00 | 75 | 1010.9 |
| 20260504172058 | 61 | 189 | 0.0 | 3.0 | 0.00 | 0.00 | 0.00 | 78 | 1010.8 |
| 20260504171557 | 61 | 186 | 1.0 | 3.0 | 0.00 | 0.00 | 0.00 | 77 | 1010.9 |
| 20260504171057 | 61 | 192 | 1.0 | 3.0 | 0.00 | 0.00 | 0.00 | 74 | 1010.9 |
| 20260504170556 | 60 | 178 | 0.0 | 2.0 | 0.00 | 0.00 | 0.00 | 73 | 1010.9 |
| 20260504151042 | 56 | 163 | 1.0 | 3.0 | 0.00 | 0.00 | 0.00 | 87 | 1010.2 |
| 20260504150545 | 56 | 162 | 0.0 | 3.0 | 0.00 | 0.00 | 0.00 | 88 | 1010.2 |
| 20260504141034 | 55 | 287 | 0.0 | 0.0 | 0.00 | 0.00 | 0.00 | 84 | 1009.7 |
| 20260504140534 | 55 | 287 | 0.0 | 0.0 | 0.00 | 0.00 | 0.00 | 84 | 1009.7 |
| 20260504130529 | 54 | 287 | 1.0 | 2.0 | 0.00 | 0.00 | 0.00 | 81 | 1009.4 |
| 20260504110519 | 57 | 72 | 0.0 | 0.0 | 0.00 | 0.00 | 0.00 | 78 | 1009.3 |
| 20260504100511 | 58 | 72 | 0.0 | 0.0 | 0.00 | 0.00 | 0.00 | 71 | 1009.3 |